Change the Weather History Date:

Sunday, December 22, 2013

  Actual Average Record
Temperature  
Mean Temperature 28 °F -  
Max Temperature 32 °F - - ()
Min Temperature 23 °F - - ()
Degree Days  
Heating Degree Days 38    
Moisture  
Dew Point 16 °F    
Average Humidity 63    
Maximum Humidity 74    
Minimum Humidity 48    
Precipitation  
Precipitation 0.00 in - - ()
Sea Level Pressure  
Sea Level Pressure 30.03 in    
Wind  
Wind Speed 8 mph (WNW)    
Max Wind Speed 20 mph    
Max Gust Speed 32 mph    
Visibility 8 miles    
Events Snow    
T = Trace of Precipitation, MM = Missing Value Source: NWS Daily Summary

Daily Weather History Graph

Daily Weather History Graph

Search for Another Location

Airport or City:

Trip Planner

Search our weather history database for the weather conditions in past years. The results will help you decide how hot, cold, wet, or windy it might be!

Date:

Astronomy

Dec. 22, 2013 Rise Set
Actual Time 10:13 AM AKST 5:22 PM AKST
Civil Twilight 9:27 AM AKST 6:08 PM AKST
Nautical Twilight 8:39 AM AKST 6:55 PM AKST
Astronomical Twilight 7:55 AM AKST 7:40 PM AKST
Moon 11:39 PM AKST (12/22) 12:26 PM AKST (12/22)
Length of Visible Light 8h 40m
Length of Day
7h 08m
Waning Gibbous, 75% of the Moon is Illuminated
Dec 22
Waning Gibbous
Dec 25
Last Quarter
Jan 1
New
Jan 7
First Quarter
Jan 15
Full

Hourly Weather History & Observations

Time (AKST) Temp. Windchill Dew Point Humidity Pressure Visibility Wind Dir Wind Speed Gust Speed Precip Events Conditions
12:11 AM 28.4 °F 19.1 °F 21.2 °F 74% 29.90 in 1.8 mi West 10.4 mph 16.1 mph 0.00 in Snow Light Snow
12:18 AM 28.4 °F 17.5 °F 21.2 °F 74% 29.90 in 3.0 mi WNW 13.8 mph 25.3 mph 0.00 in Snow Light Snow
12:56 AM 29.1 °F 16.4 °F 18.1 °F 64% 29.91 in 10.0 mi West 19.6 mph 27.6 mph 0.00 in   Mostly Cloudy
1:56 AM 29.1 °F 19.4 °F 16.2 °F 58% 29.94 in 10.0 mi WNW 11.5 mph 28.8 mph 0.00 in   Mostly Cloudy
2:56 AM 28.4 °F 19.1 °F 17.6 °F 64% 29.95 in 6.0 mi West 10.4 mph 23.0 mph N/A Snow Light Snow
3:33 AM 28.4 °F 24.6 °F 19.4 °F 69% 29.96 in 4.0 mi Variable 3.5 mph - 0.00 in Snow Light Snow
3:44 AM 28.4 °F - 17.6 °F 64% 29.96 in 4.0 mi Calm Calm - 0.00 in Snow Light Snow
3:56 AM 29.1 °F 24.1 °F 16.2 °F 58% 29.96 in 8.0 mi SW 4.6 mph - 0.00 in Snow Light Snow
4:30 AM 28.4 °F - 17.6 °F 64% 29.97 in 7.0 mi Calm Calm - 0.00 in Snow Light Snow
4:43 AM 28.4 °F 19.7 °F 17.6 °F 64% 29.97 in 10.0 mi WSW 9.2 mph - 0.00 in   Overcast
4:56 AM 29.1 °F - 17.1 °F 61% 29.98 in 9.0 mi Calm Calm - 0.00 in Snow Light Snow
5:56 AM 28.4 °F 17.0 °F 19.4 °F 69% 29.98 in 6.0 mi West 15.0 mph 19.6 mph N/A Snow Light Snow
6:56 AM 29.1 °F 20.0 °F 19.0 °F 66% 30.01 in 8.0 mi WNW 10.4 mph 17.3 mph 0.00 in Snow Light Snow
7:56 AM 29.1 °F - 17.1 °F 61% 30.04 in 10.0 mi Calm Calm - 0.00 in   Overcast
8:56 AM 28.4 °F 19.7 °F 15.8 °F 59% 30.06 in 10.0 mi WNW 9.2 mph 24.2 mph N/A Snow Light Snow
9:56 AM 29.1 °F 21.3 °F 15.1 °F 56% 30.07 in 10.0 mi NNW 8.1 mph 16.1 mph 0.00 in Snow Light Snow
10:56 AM 28.0 °F 15.3 °F 16.2 °F 61% 30.08 in 8.0 mi WNW 18.4 mph 27.6 mph 0.00 in Snow Light Snow
11:56 AM 28.4 °F 18.0 °F 15.8 °F 59% 30.08 in 10.0 mi WNW 12.7 mph 32.2 mph N/A Snow Light Snow
12:56 PM 29.1 °F 23.0 °F 13.1 °F 51% 30.09 in 10.0 mi Variable 5.8 mph - 0.00 in   Mostly Cloudy
1:56 PM 32.0 °F 24.8 °F 14.0 °F 48% 30.10 in 10.0 mi NW 8.1 mph - N/A   Partly Cloudy
2:56 PM 29.1 °F 20.0 °F 17.1 °F 61% 30.11 in 10.0 mi West 10.4 mph - N/A   Mostly Cloudy
3:56 PM 32.0 °F 24.8 °F 14.0 °F 48% 30.11 in 10.0 mi North 8.1 mph - N/A   Clear
4:56 PM 25.2 °F - 14.0 °F 63% 30.11 in 10.0 mi Calm Calm - 0.00 in   Clear
5:56 PM 23.0 °F - 14.0 °F 68% 30.10 in 10.0 mi Calm Calm - 0.00 in   Clear
6:56 PM 23.0 °F - 13.1 °F 66% 30.11 in 10.0 mi Calm Calm - 0.00 in   Partly Cloudy
7:56 PM 25.2 °F 18.3 °F 14.0 °F 63% 30.12 in 10.0 mi ESE 5.8 mph - 0.00 in   Clear
8:56 PM 25.2 °F 15.7 °F 14.0 °F 63% 30.11 in 10.0 mi ENE 9.2 mph - N/A   Clear
9:56 PM 23.0 °F - 13.1 °F 66% 30.10 in 10.0 mi Calm Calm - N/A   Clear
10:56 PM 23.0 °F 18.4 °F 14.0 °F 68% 30.09 in 10.0 mi SE 3.5 mph - N/A   Clear
11:56 PM 23.0 °F - 14.0 °F 68% 30.06 in 10.0 mi Calm Calm - N/A   Clear